Buenos Aires, Argentina

4:19 AM America on June 27, 2017 (GMT +0000)
Jorge Newbery Aeroparque

Weather History for SABE - January, 2013

Change the Weather History Date:

Tuesday, January 22, 2013

  Actual Average Record
Temperature  
Mean Temperature 76 °F -  
Max Temperature 81 °F 82 °F 93 °F (2016)
Min Temperature 70 °F 68 °F 64 °F (1998)
Cooling Degree Days 10    
Growing Degree Days 26 (Base 50)    
Moisture  
Dew Point 65 °F    
Average Humidity 69    
Maximum Humidity 83    
Minimum Humidity 52    
Precipitation  
Precipitation 0.00 in 0.14 in - ()
Sea Level Pressure  
Sea Level Pressure 30.04 in    
Wind  
Wind Speed 12 mph ()    
Max Wind Speed 18 mph    
Max Gust Speed 31 mph    
Visibility 6.1 miles    
Events      
Averages and records for this station are not official NWS values.
T = Trace of Precipitation, MM = Missing Value Source: Averaged Metar Reports

Daily Weather History Graph

Daily Weather History Graph

Search for Another Location

Airport or City:

Trip Planner

Search our weather history database for the weather conditions in past years. The results will help you decide how hot, cold, wet, or windy it might be!

Date:

Astronomy

Jan. 22, 2013 Rise Set
Actual Time 6:04 AM -03 8:06 PM -03
Civil Twilight 5:35 AM -03 8:34 PM -03
Nautical Twilight 5:01 AM -03 9:08 PM -03
Astronomical Twilight 4:24 AM -03 9:45 PM -03
Moon 4:39 PM -03 (1/22) 2:10 AM -03 (1/22)
Length of Visible Light 14h 58m
Length of Day
14h 02m
Waxing Gibbous, 82% of the Moon is Illuminated
Jan 22
Waxing Gibbous
Jan 27
Full
Feb 3
Last Quarter
Feb 10
New
Feb 17
First Quarter

Hourly Weather History & Observations

Time (-03) Temp. Heat Index Dew Point Humidity Pressure Visibility Wind Dir Wind Speed Gust Speed Precip Events Conditions
12:00 AM 72 °F - 63 °F 67% 30.11 in 6 mi East 16.1 mph - -  
12:00 AM 71.6 °F - 62.6 °F 73% 30.09 in - East 16.1 mph - N/A   Clear
1:00 AM 71.6 °F - 62.6 °F 73% 30.09 in - East 11.5 mph - N/A   Clear
2:00 AM 71.6 °F - 62.6 °F 73% 29.80 in - East 13.8 mph 27.6 mph N/A   Clear
3:00 AM 71.6 °F - 64.4 °F 78% 30.09 in - NNE 18.4 mph 31.1 mph N/A   Clear
4:00 AM 71.6 °F - 62.6 °F 73% 30.09 in - NNE 18.4 mph - N/A   Clear
5:00 AM 71.6 °F - 64.4 °F 78% 30.09 in - NNE 16.1 mph - N/A   Clear
6:00 AM 71 °F - 64 °F 74% 30.10 in 6 mi NNE 16.1 mph - -   Scattered Clouds
6:00 AM 71.6 °F - 64.4 °F 78% 30.09 in - NNE 16.1 mph - N/A   Clear
7:00 AM 71.6 °F - 64.4 °F 78% 30.09 in - NNE 13.8 mph - N/A   Clear
8:00 AM 71.6 °F - 64.4 °F 78% 30.09 in - NNE 11.5 mph - N/A   Clear
9:00 AM 73 °F - 64 °F 66% 30.12 in 6 mi NNE 11.5 mph - -   Mostly Cloudy
9:00 AM 73.4 °F - 64.4 °F 73% 30.12 in - NNE 11.5 mph - N/A   Clear
10:00 AM 75.2 °F - 66.2 °F 73% 30.09 in - NNE 8.1 mph - N/A   Clear
11:00 AM 77.0 °F - 64.4 °F 65% 30.09 in 6.2 mi NNE 6.9 mph - N/A   Partly Cloudy
12:00 PM 78 °F - 65 °F 57% 30.08 in 6 mi NE 6.9 mph - -   Scattered Clouds
12:00 PM 77.0 °F - 66.2 °F 69% 30.06 in 6.2 mi NE 6.9 mph - N/A   Partly Cloudy
1:00 PM 78.8 °F - 66.2 °F 65% 30.06 in 6.2 mi NE 5.8 mph - N/A   Scattered Clouds
2:00 PM 80.6 °F 83.2 °F 68.0 °F 65% 30.04 in - North - - N/A   Scattered Clouds
3:00 PM 80 °F - 65 °F 52% 30.03 in 6 mi East 9.2 mph - -   Partly Cloudy
3:00 PM 80.6 °F 82.3 °F 64.4 °F 58% 30.01 in 6.2 mi East 9.2 mph - N/A   Scattered Clouds
4:00 PM 80.6 °F 82.3 °F 64.4 °F 58% 30.01 in 6.2 mi East 10.4 mph - N/A   Scattered Clouds
5:00 PM 80.6 °F 82.3 °F 64.4 °F 58% 29.98 in 6.2 mi ESE 10.4 mph - N/A   Mostly Cloudy
6:00 PM 80 °F - 67 °F 55% 29.97 in 6 mi ESE 12.7 mph - -   Scattered Clouds
6:00 PM 80.6 °F 82.7 °F 66.2 °F 61% 29.95 in 6.2 mi ESE 12.7 mph - N/A   Mostly Cloudy
7:00 PM 78.8 °F - 66.2 °F 65% 29.95 in - ESE 12.7 mph - N/A   Clear
8:00 PM 77.0 °F - 68.0 °F 74% 29.95 in - ESE 12.7 mph - N/A   Clear
9:00 PM 76 °F - 68 °F 69% 29.96 in 6 mi ESE 16.1 mph - -   Clear
9:00 PM 75.2 °F - 68.0 °F 78% 29.95 in - ESE 16.1 mph - N/A   Clear
10:00 PM 75.2 °F - 68.0 °F 78% 29.98 in - ESE 15.0 mph - N/A   Clear
11:00 PM 75.2 °F - 69.8 °F 83% 29.98 in - ESE 11.5 mph - N/A   Clear